User: anonymous
Location: Vale
(35.4830°N, 81.3830°W)
Time: 17:52:48
(UTC-04:00)
Language:

Oscar 11 - Orbit

View from above orbital plane
View from above orbital plane
View from above satellite
View from above satellite

Ground track
Ground track

The orbit data is extracted from the following two-line orbital elements,

1 14781U 84021B   14105.76226335  .00000892  00000-0  12036-3 0  4642
2 14781 097.8581 167.0885 0008997 034.2036 325.9755 14.81494815618722
Epoch (UTC): 15 April 2014 18:17:39
Eccentricity: 0.0008997
inclination: 97.8581°
perigee height: 618 km
apogee height: 631 km
right ascension of ascending node: 167.0885°
argument of perigee: 34.2036°
revolutions per day: 14.81494815
mean anomaly at epoch: 325.9755°
orbit number at epoch: 61872

The dashed part of the orbit path shows where the satellite is in the earth's shadow,  

DLR